Location: Bartshausen
(51.8454°N, 9.8167°E)
Time: 06:38:35
(UTC+00:00)

Cosmos 1300 Rocket - Pass Details

Date: 08 November 2025
Orbit: 594 x 620 km, 82.5° (Epoch: 11 December)

Event Time Altitude Azimuth Distance (km) Brightness Sun altitude
Rises 04:13:43 0° 351° (N) 2,889 6.9 -20.8°
Reaches altitude 10° 04:15:59 10° 354° (N) 1,975 6.1 -20.5°
Maximum altitude 04:20:20 67° 77° (ENE) 659 3.8 -19.8°
Drops below altitude 10° 04:24:37 10° 161° (SSE) 1,943 6.4 -19.1°
Sets 04:26:49 0° 164° (SSE) 2,837 7.2 -18.8°
